DW6120 Weather Reports


Display with metric or nautical units.
time (UTC)temp
F
wind
direction
speed
MPH
gust
MPH
rain 1hr
in
rain 24hr
in
rain mn
in
humidity
%
barometer
mb
20260905091531 71 144 9.0 18.0 0.00 0.00 0.00 34 1005.4
20260905090128 71 146 7.0 14.0 0.00 0.00 0.00 35 1005.4
20260905084525 71 177 4.0 8.0 0.00 0.00 0.00 35 1005.2
20260905083023 71 303 4.0 15.0 0.00 0.00 0.00 34 1005.4
20260905081522 71 155 3.0 16.0 0.00 0.00 0.00 34 1005.2
20260905080121 72 128 4.0 13.0 0.00 0.00 0.00 34 1005.2
20260905074519 72 115 4.0 10.0 0.00 0.00 0.00 33 1005.4
20260905073016 72 110 5.0 12.0 0.00 0.00 0.00 33 1005.1
20260905071514 72 230 6.0 13.0 0.00 0.00 0.00 33 1004.9
20260905070111 73 122 7.0 19.0 0.00 0.00 0.00 33 1004.6
20260905064509 73 148 7.0 13.0 0.00 0.00 0.00 33 1004.4
20260905063008 73 192 5.0 14.0 0.00 0.00 0.00 33 1004.2
20260905061507 74 136 5.0 17.0 0.00 0.00 0.00 32 1004.1
20260905060107 74 141 4.0 15.0 0.00 0.00 0.00 31 1004.0
20260905054506 75 128 5.0 19.0 0.00 0.00 0.00 30 1003.8
20260905053011 75 115 6.0 14.0 0.00 0.00 0.00 30 1003.5
20260905051506 75 89 9.0 19.0 0.00 0.00 0.00 29 1003.4
20260905050106 76 108 11.0 21.0 0.00 0.00 0.00 28 1003.4
20260905044507 76 67 12.0 23.0 0.00 0.00 0.00 28 1003.6
20260905043005 76 86 10.0 18.0 0.00 0.00 0.00 28 1003.3
20260905041505 76 140 10.0 19.0 0.00 0.00 0.00 28 1003.3
20260905040105 76 155 7.0 14.0 0.00 0.00 0.00 28 1003.2
20260905034515 76 146 4.0 13.0 0.00 0.00 0.00 29 1003.0
20260905033007 76 142 4.0 7.0 0.00 0.00 0.00 30 1002.9
20260905031507 76 142 2.0 5.0 0.00 0.00 0.00 31 1002.8
20260905024507 77 157 5.0 9.0 0.00 0.00 0.00 30 1002.3
20260905023007 78 136 4.0 16.0 0.00 0.00 0.00 30 1002.1
20260905021506 77 123 5.0 8.0 0.00 0.00 0.00 30 1001.9
20260905020112 78 197 5.0 9.0 0.00 0.00 0.00 29 1001.8
20260905014502 79 152 3.0 12.0 0.00 0.00 0.00 28 1001.8
20260905013002 81 76 2.0 9.0 0.00 0.00 0.00 27 1001.6
20260905011501 82 199 7.0 18.0 0.00 0.00 0.00 26 1001.7
20260905010104 82 169 3.0 14.0 0.00 0.00 0.00 25 1001.6
20260905004601 83 194 7.0 17.0 0.00 0.00 0.00 25 1001.5
20260905003100 83 263 10.0 18.0 0.00 0.00 0.00 24 1001.5
20260905001601 83 219 9.0 23.0 0.00 0.00 0.00 23 1001.6
20260905000059 83 213 12.0 23.0 0.00 0.00 0.00 23 1001.5
20260904234558 83 207 9.0 21.0 0.00 0.00 0.00 22 1001.6
20260904233058 83 252 14.0 27.0 0.00 0.00 0.00 22 1001.6
20260904231556 83 224 11.0 28.0 0.00 0.00 0.00 22 1001.7
20260904230056 84 139 4.0 17.0 0.00 0.00 0.00 22 1002.0
20260904224555 83 264 8.0 26.0 0.00 0.00 0.00 22 1001.9
20260904223055 83 238 11.0 23.0 0.00 0.00 0.00 22 1002.1
20260904221556 83 238 11.0 26.0 0.00 0.00 0.00 22 1002.1
20260904220056 83 234 15.0 34.0 0.00 0.00 0.00 21 1002.3
20260904214553 83 209 9.0 20.0 0.00 0.00 0.00 22 1002.7
20260904213055 83 242 14.0 26.0 0.00 0.00 0.00 22 1002.7
20260904211549 82 172 8.0 24.0 0.00 0.00 0.00 22 1002.8
20260904210049 81 261 3.0 22.0 0.00 0.00 0.00 23 1003.2
20260904204647 81 298 6.0 16.0 0.00 0.00 0.00 23 1003.1
20260904203046 81 227 7.0 14.0 0.00 0.00 0.00 24 1003.6
20260904201544 80 284 3.0 23.0 0.00 0.00 0.00 26 1003.7
20260904200044 80 243 8.0 15.0 0.00 0.00 0.00 24 1003.9
20260904194601 79 126 7.0 23.0 0.00 0.00 0.00 26 1003.9
20260904193041 79 276 5.0 17.0 0.00 0.00 0.00 27 1004.0
20260904191538 78 250 4.0 18.0 0.00 0.00 0.00 27 1004.1
20260904190035 77 128 8.0 20.0 0.00 0.00 0.00 29 1004.4
20260904184537 77 170 4.0 22.0 0.00 0.00 0.00 29 1004.5
20260904183037 77 188 8.0 20.0 0.00 0.00 0.00 28 1004.6
20260904181545 76 134 8.0 22.0 0.00 0.00 0.00 29 1004.8
20260904180031 75 154 7.0 26.0 0.00 0.00 0.00 30 1005.1
20260904174531 76 149 9.0 22.0 0.00 0.00 0.00 29 1005.3
20260904173034 76 194 5.0 13.0 0.00 0.00 0.00 31 1005.2
20260904171528 75 128 9.0 19.0 0.00 0.00 0.00 30 1005.2
20260904170026 74 127 9.0 19.0 0.00 0.00 0.00 31 1005.2
20260904164530 74 199 8.0 16.0 0.00 0.00 0.00 30 1005.1
20260904163027 74 220 3.0 17.0 0.00 0.00 0.00 31 1005.2
20260904161526 73 221 9.0 19.0 0.00 0.00 0.00 30 1005.3
20260904160024 73 142 8.0 18.0 0.00 0.00 0.00 31 1005.2
20260904154530 73 225 5.0 12.0 0.00 0.00 0.00 31 1005.1
20260904153020 72 200 4.0 12.0 0.00 0.00 0.00 31 1005.0
20260904151521 71 146 4.0 17.0 0.00 0.00 0.00 32 1004.9
20260904150020 69 144 2.0 15.0 0.00 0.00 0.00 34 1004.8
20260904144515 69 176 7.0 22.0 0.00 0.00 0.00 34 1004.8
20260904143023 69 167 5.0 14.0 0.00 0.00 0.00 35 1004.8
20260904141514 69 180 8.0 19.0 0.00 0.00 0.00 34 1004.7
20260904140030 69 182 11.0 24.0 0.00 0.00 0.00 34 1004.5
20260904134515 69 180 6.0 22.0 0.00 0.00 0.00 31 1004.5
20260904133013 69 127 9.0 20.0 0.00 0.00 0.00 30 1004.3
20260904131511 69 174 6.0 18.0 0.00 0.00 0.00 28 1004.1
20260904130010 69 123 8.0 19.0 0.00 0.00 0.00 27 1003.7
20260904124510 69 136 10.0 25.0 0.00 0.00 0.00 27 1003.5
20260904123003 69 140 8.0 21.0 0.00 0.00 0.00 25 1003.2
20260904121501 69 172 11.0 18.0 0.00 0.00 0.00 25 1003.4
20260904114559 69 130 8.0 18.0 0.00 0.00 0.00 24 1003.3
20260904113059 69 191 6.0 17.0 0.00 0.00 0.00 23 1003.1
20260904111601 70 147 5.0 21.0 0.00 0.00 0.00 23 1003.0
20260904110056 70 143 9.0 26.0 0.00 0.00 0.00 22 1003.1
20260904104558 70 126 11.0 25.0 0.00 0.00 0.00 21 1002.8
20260904103052 70 239 6.0 23.0 0.00 0.00 0.00 20 1002.9
20260904101550 70 146 6.0 17.0 0.00 0.00 0.00 19 1002.7
20260904100049 71 162 13.0 30.0 0.00 0.00 0.00 19 1002.7
20260904094547 71 146 9.0 29.0 0.00 0.00 0.00 18 1002.4
20260904093046 71 149 5.0 16.0 0.00 0.00 0.00 18 1002.4